{"data":{"norad_id":66937,"intl_designator":"2025-286N","name":"STARLINK-36165","alt_names":[],"object_type":"PAYLOAD","status":"ACTIVE","operator":null,"country":"US","launch_date":"2025-12-07","launch_site_code":"AFWTR","launch_vehicle":null,"mission":null,"orbit_class":"UNKNOWN","rcs_meters":null,"size_class":null,"mass_kg":null,"dimensions":null,"purposes":["comms"],"wikipedia_slug":null,"has_3d_model":false,"image_url":null,"decayed_at":null,"tle_current":{"epoch":"2026-05-24T23:52:48.825984Z","epoch_age_seconds":71542,"freshness":"FRESH","line1":"1 66937U 25286N   26144.99500956  .00015989  00000+0  48338-3 0  9994","line2":"2 66937  53.1609   3.7241 0001113  83.7765 276.3365 15.34398402 27107","mean_motion":15.34398402,"eccentricity":0.0001113,"inclination_deg":53.1609,"raan_deg":3.7241,"arg_perigee_deg":83.7765,"mean_anomaly_deg":276.3365,"bstar":0.00048338,"rev_number":2710,"period_min":93.84785581913,"perigee_km":461.94660375663,"apogee_km":463.46937585136,"semimajor_km":6840.844989804,"source":"CELESTRAK","updated_at":"2026-05-25T13:38:21.387475Z"}}}